[[{"header":{"parameterUnit":"m.s-1","parameterCategory":1,"la1":30.2991,"la2":30.254,"lo1":-89.0895,"lo2":-89.0444,"dy":0.0017,"dx":0.0017,"nx":28,"ny":28,"refTime":"2025-11-28T09:00:00:Z","depth":0,"parameterNumber":2,"parameterNumberName":"U-component_of_WINDS"},"data":[0,0,0,0,0,0,0,0,0,0,0,0,0,0,0,0,0,0,0,0,0,0,0,0,0,0,0,0,0,0,0,0,0,0,0,0,0,0,0,0,0,0,0,0,0,0,0,0,0,0,0,0,0,0,0,0,0,0,-4.1205,-4.1206,0,-4.1303,-4.1304,-4.1306,-4.1291,-4.1289,-4.1287,-4.1286,-4.1387,-4.1391,-4.1395,0,0,0,0,0,0,0,0,0,0,0,0,0,-4.1006,-4.101,-4.1205,-4.1207,-4.1208,-4.1303,-4.1304,-4.1306,-4.1291,-4.1289,-4.1287,-4.1285,-4.1386,-4.1391,-4.1396,0,0,0,0,0,0,0,0,0,0,0,0,0,-4.1097,-4.1011,-4.1205,-4.1212,-4.1213,-4.1303,-4.1304,-4.1306,-4.1291,-4.1289,-4.1286,-4.1284,-4.1384,-4.139,-4.1396,-4.1485,0,0,-4.1416,-4.1418,0,0,0,0,0,0,0,0,-4.1092,-4.1104,-4.121,-4.1212,-4.1213,-4.1282,-4.1271,-4.1366,-4.1292,-4.1262,-4.1286,-4.1283,-4.1354,-4.1363,-4.1387,-4.149,-4.1494,-4.1416,-4.142,-4.1423,-4.1425,0,0,0,0,0,0,0,-4.1086,-4.11,-4.1244,-4.1211,-4.1214,-4.121,-4.122,-4.1289,-4.1321,-4.1264,-4.1263,-4.1275,-4.1355,-4.1381,-4.1389,-4.1496,-4.1416,-4.1422,-4.1426,-4.1428,-4.1677,-4.1679,0,0,0,0,0,0,-4.1077,-4.1095,-4.1241,-4.1247,-4.1145,-4.1216,-4.1227,-4.1263,-4.132,-4.1326,-4.1277,-4.1274,-4.1371,-4.1382,-4.1392,-4.1499,-4.1423,-4.1429,-4.1432,-4.1674,-4.1677,-4.168,0,0,0,0,0,0,-4.1073,-4.1091,-4.1237,-4.1171,-4.1189,-4.1222,-4.1262,-4.1266,-4.1292,-4.133,-4.1335,-4.1298,-4.1369,-4.1383,-4.1462,-4.1503,-4.1432,-4.1437,-4.1671,-4.1675,-4.1679,-4.1715,0,0,0,0,0,0,-4.1068,-4.1089,-4.1123,-4.1172,-4.1193,-4.1305,-4.1264,-4.127,-4.1303,-4.13,-4.1351,-4.1357,-4.1369,-4.1453,-4.1468,-4.151,-4.1442,-4.1667,-4.1672,-4.1677,-4.171,-4.1719,-4.1728,0,0,0,0,0,-4.106,-4.113,-4.1125,-4.1143,-4.1236,-4.1307,-4.1319,-4.1331,-4.1306,-4.134,-4.1365,-4.1355,-4.1496,-4.1461,-4.1478,-4.1523,-4.1664,-4.1671,-4.1677,-4.1706,-4.1718,-4.1727,0,0,0,0,0,0,-4.1085,-4.1136,-4.1131,-4.1219,-4.1259,-4.1305,-4.1348,-4.1344,-4.1392,-4.1387,-4.14,-4.1412,-4.1491,-4.1515,-4.1475,-4.1612,-4.1577,-4.1587,-4.1593,-4.1604,-4.1613,-4.1605,-4.1448,0,0,0,0,0,-4.1101,-4.1155,-4.1196,-4.1269,-4.1289,-4.1316,-4.1347,-4.1353,-4.1395,-4.1412,-4.1442,-4.1484,-4.1537,-4.1572,-4.1624,-4.1714,-4.1724,-4.1753,-4.1762,-4.1769,-4.1777,-4.1825,-4.1838,-4.1701,-4.1701,-4.1701,0,0,-4.1134,-4.1168,-4.1201,-4.1275,-4.1307,-4.1361,-4.133,-4.139,-4.143,-4.1421,-4.1497,-4.1521,-4.1568,-4.1652,-4.1691,-4.1674,-4.1818,-4.1777,-4.1782,-4.1787,-4.1833,-4.1846,-4.1858,-4.1705,-4.1704,-4.1704,0,0,-4.1221,-4.1253,-4.1317,-4.1349,-4.1397,-4.1414,-4.143,-4.1477,-4.1492,-4.1568,-4.1562,-4.1611,-4.1704,-4.1737,-4.1766,-4.1867,-4.1859,-4.1883,-4.1929,-4.1976,-4.1987,-4.1996,-4.2031,-4.2043,-4.1892,-4.1892,-4.1892,0,-4.1256,-4.1338,-4.135,-4.141,-4.1442,-4.1437,-4.1501,-4.1532,-4.1595,-4.1617,-4.1598,-4.1713,-4.1745,-4.1837,-4.1861,-4.1885,-4.1903,-4.1877,-4.1984,-4.1994,-4.2003,-4.2036,-4.2049,-4.1894,-4.1894,-4.1894,-4.1893,0,-4.1378,-4.1435,-4.1481,-4.1541,-4.1578,-4.164,-4.1662,-4.1698,-4.1701,-4.172,-4.1798,-4.1835,-4.1894,-4.1917,-4.192,-4.2009,-4.1997,-4.1981,-4.1946,-4.2019,-4.205,-4.2063,-4.1898,-4.1897,-4.1896,-4.1895,0,0,-4.1483,-4.1549,-4.1565,-4.1592,-4.1645,-4.1689,-4.1751,-4.1808,-4.1839,-4.1883,-4.1934,-4.2013,-4.1998,-4.2031,-4.2039,-4.208,-4.2156,-4.206,-4.2061,-4.2075,-4.2255,-4.2265,-4.2279,-4.2152,-4.2155,-4.2157,-4.225,0,-4.1574,-4.1682,-4.1695,-4.1791,-4.1844,-4.1839,-4.1893,-4.1931,-4.1951,-4.1999,-4.2021,-4.2075,-4.2053,-4.2072,-4.2114,-4.2138,-4.2192,-4.2132,-4.2199,-4.2202,-4.2186,-4.2296,-4.2307,-4.2394,-4.2263,-4.2265,-4.2266,0,-4.1695,-4.1741,-4.1843,-4.1888,-4.191,-4.1958,-4.2011,-4.2057,-4.21,-4.2112,-4.2149,-4.2151,-4.2214,-4.2178,-4.2266,-4.2225,-4.2253,-4.227,-4.2273,-4.2279,-4.2237,-4.2303,-4.2422,-4.2434,-4.2286,-4.2284,-4.2283,0,-4.176,-4.1848,-4.1919,-4.1943,-4.1997,-4.2031,-4.2055,-4.2096,-4.213,-4.2176,-4.2198,-4.2252,-4.2281,-4.2322,-4.2339,-4.2311,-4.2425,-4.2391,-4.2436,-4.2436,-4.2459,-4.2457,-4.2582,-4.248,-4.248,-4.248,-4.248,0,-4.1859,-4.1921,-4.1949,-4.1993,-4.2062,-4.2076,-4.2144,-4.2168,-4.2204,-4.2252,-4.2253,-4.2298,-4.2318,-4.2367,-4.2381,-4.245,-4.2464,-4.2475,-4.2477,-4.2474,-4.2472,-4.2492,-4.2485,-4.2483,-4.2483,-4.2482,-4.2481,0,-4.1943,-4.1964,-4.2042,-4.2087,-4.21,-4.2148,-4.2187,-4.223,-4.2249,-4.231,-4.2325,-4.2356,-4.2413,-4.2434,-4.2504,-4.2513,-4.2594,-4.2592,-4.2579,-4.2579,-4.2623,-4.2618,-4.2764,-4.2783,-4.267,-4.2671,-4.2671,0,-4.2004,-4.2052,-4.2102,-4.2134,-4.2159,-4.2211,-4.2245,-4.2261,-4.2296,-4.2349,-4.2385,-4.2442,-4.2488,-4.258,-4.2608,-4.2662,-4.2661,-4.2708,-4.2669,-4.2663,-4.266,-4.2656,-4.266,-4.2715,-4.2716,-4.2717,-4.2718,0,-4.2111,-4.2119,-4.2167,-4.2219,-4.2259,-4.2301,-4.2342,-4.2368,-4.239,-4.2429,-4.2488,-4.2523,-4.2595,-4.2651,-4.2706,-4.2731,-4.2728,-4.273,-4.2743,-4.274,-4.2729,-4.2734,-4.2597,-4.2727,-4.2726,-4.2725,-4.2725,-4.2724,-4.2185,-4.2226,-4.2267,-4.2321,-4.2353,-4.2391,-4.2433,-4.2457,-4.2505,-4.2564,-4.2571,-4.2633,-4.2675,-4.2748,-4.2776,-4.2825,-4.2813,-4.2832,-4.2837,-4.2841,-4.2843,-4.2722,-4.2836,-4.2836,-4.2835,-4.2835,-4.2835,0,-4.229,-4.2317,-4.2366,-4.2422,-4.2464,-4.2457,-4.2502,-4.2537,-4.2592,-4.2631,-4.2676,-4.2743,-4.2798,-4.283,-4.2885,-4.2918,-4.2918,-4.2932,-4.2929,-4.2935,-4.2852,-4.2835,-4.2931,-4.2931,-4.2931,-4.2931,-4.2931,-4.2931,-4.235,-4.2419,-4.2432,-4.2517,-4.2543,-4.2604,-4.2629,-4.2664,-4.2695,-4.2769,-4.2814,-4.2835,-4.2872,-4.2929,-4.2979,-4.2987,-4.3007,-4.3022,-4.3029,-4.2951,-4.2941,-4.2931,-4.2915,-4.3026,-4.3026,-4.3107,-4.3108,-4.3108]},{"header":{"parameterUnit":"m.s-1","parameterCategory":1,"la1":30.2991,"la2":30.254,"lo1":-89.0895,"lo2":-89.0444,"dy":0.0017,"dx":0.0017,"nx":28,"ny":28,"refTime":"2025-11-28T09:00:00:Z","depth":0,"parameterNumber":3,"parameterNumberName":"V-component_of_WINDS"},"data":[0,0,0,0,0,0,0,0,0,0,0,0,0,0,0,0,0,0,0,0,0,0,0,0,0,0,0,0,0,0,0,0,0,0,0,0,0,0,0,0,0,0,0,0,0,0,0,0,0,0,0,0,0,0,0,0,0,0,4.3846,4.3847,0,4.3913,4.3913,4.3914,4.3875,4.3873,4.3871,4.3869,4.3932,4.3935,4.3938,0,0,0,0,0,0,0,0,0,0,0,0,0,4.3678,4.3682,4.3846,4.3847,4.3847,4.3912,4.3913,4.3914,4.3875,4.3873,4.387,4.3868,4.393,4.3934,4.3939,0,0,0,0,0,0,0,0,0,0,0,0,0,4.3749,4.3683,4.3846,4.3836,4.3836,4.3912,4.3913,4.3914,4.3875,4.3873,4.387,4.3867,4.3929,4.3934,4.3939,4.4027,0,0,4.3955,4.3957,0,0,0,0,0,0,0,0,4.3745,4.3755,4.3836,4.3837,4.3837,4.3883,4.3877,4.3952,4.3876,4.386,4.3869,4.3866,4.3917,4.3923,4.3942,4.403,4.4033,4.3955,4.3958,4.396,4.3962,0,0,0,0,0,0,0,4.374,4.3752,4.3872,4.3838,4.3838,4.3826,4.3833,4.3891,4.3903,4.3861,4.3859,4.3867,4.3917,4.3937,4.3943,4.4034,4.3955,4.396,4.3963,4.3965,4.4196,4.4199,0,0,0,0,0,0,4.3737,4.3748,4.387,4.3874,4.3783,4.3832,4.3839,4.3871,4.3903,4.3905,4.387,4.3865,4.3929,4.3937,4.3945,4.4048,4.396,4.3965,4.3968,4.4193,4.4197,4.42,0,0,0,0,0,0,4.3733,4.3748,4.3867,4.381,4.3825,4.3837,4.3873,4.3873,4.3893,4.3909,4.3911,4.3888,4.3927,4.3938,4.4007,4.405,4.3968,4.3972,4.419,4.4194,4.4199,4.4257,0,0,0,0,0,0,4.3729,4.3747,4.3782,4.3812,4.3828,4.393,4.3876,4.3877,4.3903,4.3898,4.3927,4.3929,4.3926,4.4,4.4012,4.4056,4.3976,4.4186,4.4192,4.4197,4.4252,4.4263,4.4274,0,0,0,0,0,4.3723,4.3795,4.3784,4.3799,4.3872,4.3933,4.3942,4.3938,4.3907,4.3941,4.3951,4.3928,4.4044,4.4007,4.4021,4.4066,4.4183,4.419,4.4197,4.4247,4.4261,4.4273,0,0,0,0,0,0,4.3767,4.3798,4.3786,4.3871,4.39,4.3926,4.3969,4.3954,4.3991,4.3984,4.3977,4.3984,4.4056,4.4068,4.4027,4.4153,4.4108,4.4118,4.4141,4.4155,4.4166,4.416,4.398,0,0,0,0,0,4.3787,4.3836,4.386,4.3931,4.3947,4.3956,4.3982,4.3977,4.4006,4.4017,4.4032,4.406,4.4102,4.413,4.417,4.4254,4.4259,4.4292,4.4303,4.4312,4.432,4.4364,4.4378,4.4223,4.4223,4.4223,0,0,4.3828,4.3851,4.3882,4.3941,4.3963,4.4011,4.3966,4.4019,4.4054,4.4025,4.4091,4.4104,4.4133,4.421,4.4245,4.4223,4.4365,4.4321,4.4328,4.4331,4.4372,4.4387,4.44,4.4228,4.4227,4.4226,0,0,4.3927,4.395,4.4012,4.4036,4.407,4.4076,4.4091,4.412,4.4127,4.4195,4.4173,4.4214,4.4288,4.431,4.433,4.4439,4.4418,4.4452,4.4508,4.4551,4.4563,4.4574,4.461,4.4623,4.446,4.446,4.4461,0,4.3972,4.4046,4.4045,4.41,4.4126,4.4104,4.4165,4.4187,4.4232,4.425,4.4225,4.4317,4.4336,4.4417,4.4443,4.4462,4.4476,4.4447,4.4562,4.4572,4.4582,4.4617,4.4631,4.4464,4.4464,4.4463,4.4463,0,4.4099,4.4151,4.4197,4.4243,4.4274,4.4332,4.4337,4.4369,4.4362,4.4369,4.4437,4.4459,4.4503,4.4522,4.4515,4.4602,4.4587,4.4563,4.4517,4.4601,4.4633,4.4646,4.4469,4.4468,4.4467,4.4466,0,0,4.4225,4.4271,4.4288,4.4308,4.4345,4.4384,4.444,4.4485,4.4511,4.4543,4.4588,4.4652,4.463,4.4653,4.4649,4.4687,4.4769,4.4657,4.4658,4.4675,4.4863,4.4879,4.4894,4.4757,4.4759,4.4761,4.4859,0,4.4324,4.4425,4.4425,4.4517,4.4563,4.4544,4.4593,4.462,4.4629,4.4668,4.4677,4.4722,4.469,4.4704,4.4741,4.4751,4.4806,4.4744,4.4796,4.4798,4.4786,4.4912,4.4929,4.502,4.4872,4.4874,4.4876,0,4.4452,4.4491,4.4587,4.4617,4.4637,4.4681,4.4721,4.476,4.479,4.4794,4.4821,4.4811,4.4866,4.4822,4.4897,4.4855,4.4876,4.4885,4.4888,4.489,4.484,4.4914,4.5049,4.5062,4.4896,4.4895,4.4893,0,4.4531,4.4607,4.4674,4.4693,4.473,4.4761,4.4778,4.4805,4.4832,4.4867,4.4884,4.4925,4.4946,4.4977,4.4977,4.4946,4.5052,4.5008,4.5054,4.5054,4.5075,4.5073,4.5213,4.5094,4.5094,4.5094,4.5093,0,4.464,4.4699,4.471,4.4751,4.4816,4.4817,4.488,4.4894,4.4919,4.496,4.4947,4.4986,4.4985,4.5025,4.5026,4.5086,4.5096,4.5099,4.5098,4.5099,4.5098,4.511,4.5103,4.5097,4.5097,4.5096,4.5095,0,4.4738,4.4748,4.482,4.485,4.4859,4.4905,4.493,4.4968,4.4977,4.503,4.5042,4.5055,4.5101,4.5105,4.5158,4.5158,4.5231,4.5224,4.5221,4.5219,4.5263,4.5258,4.5413,4.5433,4.5304,4.5306,4.5307,0,4.4805,4.485,4.4886,4.4914,4.4933,4.4978,4.5006,4.5008,4.5037,4.5075,4.5108,4.5152,4.5188,4.5261,4.5274,4.5314,4.5306,4.5358,4.5312,4.5311,4.5304,4.53,4.5303,4.5366,4.5367,4.5368,4.5369,0,4.4922,4.4925,4.4967,4.501,4.5044,4.5078,4.5109,4.5132,4.5138,4.5171,4.5219,4.5247,4.5301,4.5345,4.5384,4.5399,4.5384,4.5385,4.5397,4.5396,4.5391,4.5392,4.5242,4.538,4.5379,4.5378,4.5378,4.5377,4.5005,4.5044,4.5075,4.5121,4.5146,4.5176,4.5213,4.5227,4.5268,4.5313,4.5312,4.5364,4.5391,4.5443,4.5461,4.55,4.5483,4.5501,4.5505,4.5509,4.5512,4.5388,4.5508,4.5508,4.5507,4.5507,4.5507,0,4.5119,4.5139,4.5182,4.5227,4.5263,4.525,4.5284,4.5314,4.5361,4.5389,4.5425,4.5479,4.5521,4.5538,4.5579,4.5607,4.5602,4.5618,4.5614,4.5617,4.5527,4.5511,4.5622,4.5622,4.5622,4.5622,4.5622,4.5622,4.5183,4.5247,4.5254,4.533,4.5349,4.5401,4.5422,4.5448,4.5471,4.5532,4.5568,4.558,4.5603,4.5646,4.5684,4.5687,4.5702,4.572,4.5721,4.5636,4.5624,4.5613,4.5597,4.5724,4.5724,4.5807,4.5808,4.5809]}]]